This is the latest recevied weather packets stored in our database for station/object OK2ZA-6. If no packets are shown the sender has not sent any weather packets the latest 10 day(s).
| Time | Temp. | Humidity | Pressure | Rain* | Wind** | Luminosity | Snow |
|---|---|---|---|---|---|---|---|
| 1777804203 | 19.44° C | 42% | 1018.4 hPa | 0 mm | - | - | - |
| 1777803604 | 20° C | 42% | 1018.4 hPa | 0 mm | - | - | - |
| 1777803003 | 19.44° C | 42% | 1018.6 hPa | 0 mm | - | - | - |
| 1777802403 | 19.44° C | 42% | 1018.8 hPa | 0 mm | - | - | - |
| 1777801804 | 18.89° C | 44% | 1018.8 hPa | 0 mm | - | - | - |
| 1777801204 | 18.89° C | 43% | 1018.8 hPa | 0 mm | - | - | - |
| 1777800603 | 18.33° C | 45% | 1018.8 hPa | 0 mm | - | - | - |
| 1777800003 | 18.33° C | 48% | 1019.1 hPa | 0 mm | - | - | - |
| 1777799404 | 17.78° C | 47% | 1019.1 hPa | 0 mm | - | - | - |
| 1777798803 | 17.78° C | 47% | 1019.2 hPa | 0 mm | - | - | - |
| 1777798204 | 17.78° C | 47% | 1019.3 hPa | 0 mm | - | - | - |
| 1777797603 | 17.22° C | 48% | 1019.3 hPa | 0 mm | - | - | - |
| 1777797003 | 16.67° C | 49% | 1019.3 hPa | 0 mm | - | - | - |
| 1777796403 | 16.67° C | 49% | 1019.3 hPa | 0 mm | - | - | - |
| 1777795803 | 16.67° C | 51% | 1019.4 hPa | 0 mm | - | - | - |
| 1777795204 | 15.56° C | 51% | 1019.4 hPa | 0 mm | - | - | - |
| 1777794603 | 15.56° C | 52% | 1019.3 hPa | 0 mm | - | - | - |
| 1777794003 | 15° C | 54% | 1019.4 hPa | 0 mm | - | - | - |
| 1777793404 | 15° C | 55% | 1019.3 hPa | 0 mm | - | - | - |
| 1777792803 | 14.44° C | 55% | 1019.3 hPa | 0 mm | - | - | - |
| 1777792204 | 13.89° C | 58% | 1019.3 hPa | 0 mm | - | - | - |
| 1777791604 | 13.89° C | 56% | 1019.3 hPa | 0 mm | - | - | - |
| 1777791003 | 13.89° C | 58% | 1019.1 hPa | 0 mm | - | - | - |
| 1777790403 | 13.33° C | 57% | 1019.2 hPa | 0 mm | - | - | - |
| 1777789803 | 13.33° C | 58% | 1019 hPa | 0 mm | - | - | - |
* Rain latest hour (hover to see other rain measurements)
** Current wind speed in m/s (hover to see current wind gust speed)